Location: Buckland
(65.9785°N, 161.1281°W)
Time: 21:13:38
(UTC+00:00)

PRISM - Pass Details

Date: 26 January 2021
Orbit: 565 x 584 km, 98.2° (Epoch: 06 March)

Event Time Altitude Azimuth Distance (km) Brightness Sun altitude
Rises 13:24:42 0° 20° (NNE) 2,792 ? -36.8°
Reaches altitude 10° 13:26:57 10° 28° (NNE) 1,893 ? -36.7°
Enters shadow 13:27:26 13° 31° (NNE) 1,709 ? -36.6°
